Flag Island, MN

1:55 PM CDT on July 24, 2017 (GMT -0500)
Flag Island

Weather History for KFGN - June, 2012

Change the Weather History Date:

Monday, June 11, 2012

  Actual Average Record
Temperature  
Mean Temperature 54 °F -  
Max Temperature 62 °F 63 °F 82 °F (2007)
Min Temperature 46 °F 51 °F 5 °F (2000)
Degree Days  
Heating Degree Days 11    
Growing Degree Days 4 (Base 50)    
Moisture  
Dew Point 50 °F    
Average Humidity 83    
Maximum Humidity 100    
Minimum Humidity 59    
Precipitation  
Precipitation 0.06 in - - ()
Sea Level Pressure  
Sea Level Pressure 29.61 in    
Wind  
Wind Speed 16 mph (WSW)    
Max Wind Speed 30 mph    
Max Gust Speed 37 mph    
Visibility 10 miles    
Events Rain    
Averages and records for this station are not official NWS values.
T = Trace of Precipitation, MM = Missing Value Source: NWS Daily Summary

Daily Weather History Graph

Daily Weather History Graph

Search for Another Location

Airport or City:

Trip Planner

Search our weather history database for the weather conditions in past years. The results will help you decide how hot, cold, wet, or windy it might be!

Date:

Astronomy

Jun. 11, 2012 Rise Set
Actual Time 5:13 AM CDT 9:25 PM CDT
Civil Twilight 4:30 AM CDT 10:08 PM CDT
Nautical Twilight 3:29 AM CDT 11:10 PM CDT
Astronomical Twilight 1:51 AM CDT 12:47 AM CDT
Moon 1:09 AM CDT (6/11) 1:43 PM CDT (6/11)
Length of Visible Light 17h 37m
Length of Day
16h 11m
Waning Gibbous, 47% of the Moon is Illuminated
Jun 11
Waning Gibbous
Jun 19
New
Jun 26
First Quarter
Jul 3
Full
Jul 10
Last Quarter

Hourly Weather History & Observations

Time (CDT) Temp. Windchill Dew Point Humidity Pressure Visibility Wind Dir Wind Speed Gust Speed Precip Events Conditions
12:13 AM 55.4 °F - 53.6 °F 94% 29.55 in 10.0 mi SW 10.4 mph - 0.01 in   Scattered Clouds
12:33 AM 55.4 °F - 55.4 °F 100% 29.54 in 10.0 mi SSW 13.8 mph - 0.01 in   Scattered Clouds
12:54 AM 57.2 °F - 55.4 °F 94% 29.53 in 10.0 mi SSW 12.7 mph - 0.02 in   Clear
1:13 AM 57.2 °F - 55.4 °F 94% 29.53 in 10.0 mi SSW 17.3 mph - N/A   Clear
1:33 AM 57.2 °F - 55.4 °F 94% 29.53 in 10.0 mi SSW 17.3 mph - 0.01 in   Clear
1:53 AM 57.2 °F - 55.4 °F 94% 29.53 in 10.0 mi SW 16.1 mph - 0.01 in   Clear
2:13 AM 57.2 °F - 55.4 °F 94% 29.52 in 10.0 mi SSW 15.0 mph - N/A   Clear
2:33 AM 57.2 °F - 55.4 °F 94% 29.51 in 10.0 mi SSW 13.8 mph - 0.01 in   Clear
2:53 AM 57.2 °F - 55.4 °F 94% 29.50 in 10.0 mi SSW 11.5 mph - 0.01 in   Clear
3:13 AM 57.2 °F - 55.4 °F 94% 29.49 in 10.0 mi South 6.9 mph - N/A   Clear
3:33 AM 59.0 °F - 55.4 °F 88% 29.49 in 10.0 mi SSW 8.1 mph - N/A   Clear
3:53 AM 59.0 °F - 55.4 °F 88% 29.47 in 10.0 mi South 8.1 mph - N/A   Clear
4:13 AM 60.8 °F - 55.4 °F 82% 29.46 in 10.0 mi South 9.2 mph - 0.01 in   Clear
4:33 AM 60.8 °F - 55.4 °F 82% 29.46 in 10.0 mi South 10.4 mph - 0.01 in   Clear
4:53 AM 59.0 °F - 53.6 °F 82% 29.48 in 10.0 mi SW 23.0 mph 28.8 mph 0.01 in   Scattered Clouds
5:13 AM 57.2 °F - 53.6 °F 88% 29.48 in 10.0 mi WSW 18.4 mph 24.2 mph N/A   Scattered Clouds
5:34 AM 55.4 °F - 51.8 °F 88% 29.49 in 10.0 mi West 13.8 mph - N/A   Clear
5:53 AM 55.4 °F - 51.8 °F 88% 29.49 in 10.0 mi WSW 11.5 mph - N/A   Mostly Cloudy
6:14 AM 55.4 °F - 51.8 °F 88% 29.50 in 10.0 mi WSW 9.2 mph - N/A   Overcast
6:33 AM 55.4 °F - 51.8 °F 88% 29.50 in 10.0 mi WSW 11.5 mph - N/A Rain Light Rain
6:54 AM 53.6 °F - 51.8 °F 94% 29.49 in 5.0 mi WSW 8.1 mph - N/A Rain Light Rain
7:13 AM 53.6 °F - 51.8 °F 94% 29.49 in 10.0 mi SW 8.1 mph - N/A Rain Light Rain
7:33 AM 55.4 °F - 51.8 °F 88% 29.49 in 10.0 mi SW 13.8 mph - N/A   Overcast
8:13 AM 55.4 °F - 51.8 °F 88% 29.48 in 10.0 mi SSW 16.1 mph - N/A   Scattered Clouds
8:33 AM 57.2 °F - 53.6 °F 88% 29.48 in 10.0 mi SW 17.3 mph 21.9 mph N/A   Mostly Cloudy
8:54 AM 55.4 °F - 51.8 °F 88% 29.49 in 10.0 mi SW 21.9 mph 25.3 mph N/A   Overcast
9:13 AM 57.2 °F - 51.8 °F 82% 29.49 in 10.0 mi SW 20.7 mph 25.3 mph N/A   Overcast
9:33 AM 57.2 °F - 51.8 °F 82% 29.49 in 10.0 mi SW 19.6 mph 28.8 mph N/A   Mostly Cloudy
9:54 AM 57.2 °F - 51.8 °F 82% 29.49 in 10.0 mi SW 20.7 mph - N/A   Mostly Cloudy
10:13 AM 59.0 °F - 51.8 °F 77% 29.49 in 10.0 mi SW 23.0 mph 27.6 mph N/A   Mostly Cloudy
10:33 AM 59.0 °F - 50.0 °F 72% 29.50 in 10.0 mi WSW 21.9 mph 26.5 mph N/A   Mostly Cloudy
10:54 AM 57.2 °F - 50.0 °F 77% 29.51 in 10.0 mi WSW 18.4 mph - N/A   Mostly Cloudy
11:13 AM 59.0 °F - 50.0 °F 72% 29.51 in 10.0 mi SW 23.0 mph 28.8 mph N/A   Mostly Cloudy
11:33 AM 60.8 °F - 50.0 °F 68% 29.52 in 10.0 mi WSW 18.4 mph 27.6 mph N/A   Overcast
11:54 AM 60.8 °F - 51.8 °F 72% 29.53 in 10.0 mi SW 16.1 mph 26.5 mph N/A   Overcast
12:13 PM 60.8 °F - 50.0 °F 68% 29.53 in 10.0 mi WSW 21.9 mph 26.5 mph N/A   Mostly Cloudy
12:33 PM 62.6 °F - 51.8 °F 68% 29.53 in 10.0 mi SW 19.6 mph 24.2 mph N/A   Mostly Cloudy
12:53 PM 62.6 °F - 51.8 °F 68% 29.54 in 10.0 mi West 17.3 mph 24.2 mph N/A   Scattered Clouds
1:13 PM 62.6 °F - 48.2 °F 59% 29.55 in 10.0 mi West 12.7 mph 26.5 mph N/A   Scattered Clouds
1:33 PM 60.8 °F - 51.8 °F 72% 29.56 in 10.0 mi SW 16.1 mph 23.0 mph N/A   Scattered Clouds
1:53 PM 60.8 °F - 51.8 °F 72% 29.57 in 10.0 mi WSW 20.7 mph 26.5 mph N/A Rain Light Rain
2:13 PM 57.2 °F - 53.6 °F 88% 29.59 in 4.0 mi West 15.0 mph 23.0 mph N/A Rain Rain
2:33 PM 57.2 °F - 53.6 °F 88% 29.59 in 10.0 mi West 16.1 mph 21.9 mph N/A   Mostly Cloudy
2:53 PM 57.2 °F - 51.8 °F 82% 29.61 in 10.0 mi West 21.9 mph 27.6 mph 0.01 in   Overcast
3:13 PM 55.4 °F - 50.0 °F 82% 29.63 in 10.0 mi West 17.3 mph 27.6 mph N/A   Overcast
3:33 PM 53.6 °F - 48.2 °F 82% 29.64 in 10.0 mi West 20.7 mph 25.3 mph N/A   Overcast
3:53 PM 53.6 °F - 48.2 °F 82% 29.65 in 10.0 mi West 21.9 mph 27.6 mph N/A   Overcast
4:13 PM 53.6 °F - 48.2 °F 82% 29.66 in 10.0 mi West 18.4 mph 24.2 mph N/A   Overcast
4:33 PM 53.6 °F - 48.2 °F 82% 29.67 in 10.0 mi West 21.9 mph 27.6 mph N/A   Overcast
4:53 PM 53.6 °F - 48.2 °F 82% 29.68 in 10.0 mi West 18.4 mph 25.3 mph N/A   Overcast
5:13 PM 53.6 °F - 48.2 °F 82% 29.69 in 10.0 mi West 20.7 mph 25.3 mph N/A   Overcast
5:33 PM 51.8 °F - 50.0 °F 94% 29.71 in 4.0 mi WNW 21.9 mph 27.6 mph N/A Rain Rain
5:54 PM 53.6 °F - 48.2 °F 82% 29.73 in 10.0 mi WNW 26.5 mph 31.1 mph N/A   Overcast
6:13 PM 53.6 °F - 46.4 °F 77% 29.74 in 10.0 mi WNW 26.5 mph 29.9 mph N/A   Overcast
6:33 PM 51.8 °F - 46.4 °F 82% 29.76 in 10.0 mi WNW 21.9 mph 32.2 mph N/A   Overcast
6:53 PM 51.8 °F - 44.6 °F 76% 29.77 in 10.0 mi WNW 29.9 mph 34.5 mph N/A   Overcast
7:13 PM 51.8 °F - 44.6 °F 76% 29.78 in 10.0 mi WNW 29.9 mph 35.7 mph N/A   Overcast
7:53 PM 50.0 °F - 42.8 °F 76% 29.81 in 10.0 mi NW 24.2 mph 32.2 mph N/A   Mostly Cloudy
8:13 PM 50.0 °F - 44.6 °F 82% 29.81 in 10.0 mi WNW 24.2 mph 36.8 mph N/A   Mostly Cloudy
8:33 PM 48.2 °F - 44.6 °F 87% 29.83 in 10.0 mi WNW 25.3 mph 33.4 mph N/A   Overcast
8:53 PM 48.2 °F - 44.6 °F 87% 29.84 in 10.0 mi NW 23.0 mph 33.4 mph N/A   Overcast
9:13 PM 48.2 °F - 44.6 °F 87% 29.85 in 10.0 mi NW 26.5 mph 29.9 mph N/A   Overcast
9:33 PM 48.2 °F - 44.6 °F 87% 29.87 in 10.0 mi NW 24.2 mph 33.4 mph N/A   Overcast
9:53 PM 46.4 °F 38.3 °F 42.8 °F 87% 29.88 in 10.0 mi NW 23.0 mph - N/A   Overcast
10:13 PM 46.4 °F 38.7 °F 42.8 °F 87% 29.89 in 10.0 mi NW 20.7 mph - N/A   Overcast
10:33 PM 46.4 °F 37.9 °F 42.8 °F 87% 29.91 in 10.0 mi NW 25.3 mph 31.1 mph N/A   Overcast
10:53 PM 46.4 °F 37.9 °F 39.2 °F 76% 29.92 in 10.0 mi NW 25.3 mph 31.1 mph N/A   Overcast
11:33 PM 46.4 °F 38.3 °F 39.2 °F 76% 29.94 in 10.0 mi NW 23.0 mph - N/A   Overcast
11:53 PM 46.4 °F 38.3 °F 39.2 °F 76% 29.95 in 10.0 mi NW 23.0 mph - N/A Rain Light Rain